Regional Weather Roundup
Issued by NWS Northern Indiana

Home | Current Version | Previous Version | Graphics & Text | Print | Product List | Glossary On
Versions: 1 2 3 4 5 6 7 8 9 10 11 12 13 14 15 16 17 18 19 20 21 22 23 24 25 26 27 28 29 30 31 32 33 34 35 36 37 38 39 40 41 42 43 44 45 46 47 48 49 50
000
ASUS43 KIWX 101610
RWRIWX

KIWX WEATHER ROUNDUP
NATIONAL WEATHER SERVICE NORTHERN INDIANA
1100 AM EST SAT DEC 10 2016

NOTE: "FAIR" INDICATES FEW OR NO CLOUDS BELOW 12,000 FEET WITH NO
SIGNIFICANT WEATHER AND/OR OBSTRUCTIONS TO VISIBILITY.

* THESE STATIONS ARE NOT UNDER NWS QUALITY CONTROL. THEY ALSO MAY NOT
  REPORT WEATHER SUCH AS PRECIPITATION OR FOG.

INZ001>027-101700-
NORTHERN INDIANA

CITY           SKY/WX    TMP DP  RH WIND       PRES   REMARKS
GARY*          MOSUNNY   25  14  63 W6        30.55S WCI  18
VALPARAISO     MOSUNNY   24  14  65 W9        30.53S WCI  14
MICHIGAN CITY* CLOUDY    25  16  68 W9        30.53S WCI  15
LAPORTE*       MOSUNNY   22  15  73 W9        30.53R WCI  12
KNOX*          PTSUNNY   25   0  33 W12       30.53S WCI  14
SOUTH BEND     LGT SNOW  20  15  81 SW14      30.51S WCI   7
ELKHART*       LGT SNOW  21  16  79 SW14      30.50R WCI   8
GOSHEN         PTSUNNY   23  13  65 SW16      30.51R WCI  10
MONTICELLO*    CLOUDY    24  12  59 W9        30.55S WCI  15
LOGANSPORT*    CLOUDY    25  18  74 W10       30.55S WCI  15
ROCHESTER*     CLOUDY    27  19  74 W7G16     30.53S WCI  19
WARSAW*        CLOUDY    23  14  68 W12       30.52S WCI  12
ANGOLA*        SUNNY     25  16  68 W14       30.48R WCI  13
FORT WAYNE     CLOUDY    25  15  66 W14       30.53R WCI  13
HUNTINGTON*    CLOUDY    25  15  67 W13       30.52S WCI  13
PERU/GRISSOM   CLOUDY    25  16  68 W13       30.52S WCI  13
MARION*        CLOUDY    24  17  74 SW10      30.54S HAZE    WCI  14

$$
INZ028>050-101700-
CENTRAL INDIANA

CITY           SKY/WX    TMP DP  RH WIND       PRES   REMARKS
LAFAYETTE      CLOUDY    24  17  74 W7        30.57R WCI  16
KOKOMO*        CLOUDY    25  17  72 W12       30.54F WCI  14
MUNCIE*        CLOUDY    25  16  68 W8        30.54R WCI  16
INDIANAPOLIS   CLOUDY    25  15  66 SW12      30.56R WCI  14

$$
MIZ043>046-050>051-056>058-064>065-071>073-077>080-101700-
SOUTHWEST LOWER MICHIGAN

CITY           SKY/WX    TMP DP  RH WIND       PRES   REMARKS
BATTLE CREEK   LGT SNOW  21  18  88 SW14      30.45R FOG     WCI   8
BENTON HARBOR  LGT SNOW  26  17  68 W14       30.49S WCI  14
COLDWATER*     FLURRIES  23  16  75 SW14      30.47R WCI  10
HILLSDALE*     MOSUNNY   23  12  63 W8        30.44R WCI  14
HOLLAND        LGT SNOW  26  17  68 W10G18    30.46R WCI  16
GRAND RAPIDS   LGT SNOW  24  17  74 W9        30.44S WCI  14
KALAMAZOO      SNOW      22  17  81 SW13      30.46R VSB 1/2 WCI  10
STURGIS*       FLURRIES  22  17  81 W10       30.48R WCI  11
THREE RIVERS*  FLURRIES  22  17  80 W9        30.49R WCI  12

$$
OHZ001>008-015>018-024>025-101700-
NORTHWEST OHIO

CITY           SKY/WX    TMP DP  RH WIND       PRES   REMARKS
WAUSEON*       FAIR      27  16  63 W14       30.48S WCI  15
DEFIANCE       SUNNY     26  14  60 W8        30.51S WCI  18
FINDLAY        SUNNY     26  14  60 W13       30.51R WCI  15
TOLEDO EXPRESS SUNNY     25  15  66 W15       30.49S WCI  13
TOLEDO METCALF SUNNY     26  15  63 SW12      30.50S WCI  16
LIMA           SUNNY     23  16  74 W13       30.51R WCI  11

$$
AND FOR LAKE MICHIGAN COASTAL AND OPEN LAKE BUOY OBSERVATIONS

STATION/POSITION TEMP    WIND        PRES    VSBY  WAVE
                 AIR SEA DIR/SP/G                  HT/PER
                 (F)     (DEG/KT/KT) (MB)    (MI)  (FT/S)
CALUMET HARBOR    23     240/  5/ 11 1033.1R
BURNS HARBOR      23     260/ 11/ 16 1033.9S
SAINT JOSEPH      27     270/ 14/ 20 1032.8

$$
&&




USA.gov is the U.S. government's official web portal to all federal, state and local government web resources and services.